• In Belarus
  • List of Countries
  • For 7 days
  • Water Temperature
  • Satellite Maps
  • Weather Map
  • Weather Widgets
  • user-avatar
    Login

    Hourly Weather Burshtyn

    Today, 23 October, Monday

    Time Temperature Precipitation Wind Pressure Humidity
    00:00 +6°C° 0 mm 4 mps 737 mmHg 87%
    01:00 +6°C° 0 mm 4 mps 737 mmHg 87%
    02:00 +6°C° 0 mm 4 mps 736 mmHg 86%
    03:00 +6°C° 0.1 mm 4 mps 736 mmHg 87%
    04:00 +6°C° 0.1 mm 4 mps 736 mmHg 87%
    05:00 +6°C° 0.1 mm 4 mps 735 mmHg 87%
    06:00 +6°C° 0.1 mm 4 mps 735 mmHg 87%
    07:00 +6°C° 0.1 mm 4 mps 735 mmHg 87%
    08:00 +6°C° 0.1 mm 4 mps 735 mmHg 86%
    09:00 +6°C° 0.2 mm 4 mps 735 mmHg 85%
    10:00 +7°C° 0.2 mm 5 mps 734 mmHg 84%
    11:00 +7°C° 0.2 mm 5 mps 734 mmHg 83%
    12:00 +7°C° 0.4 mm 5 mps 734 mmHg 84%
    13:00 +7°C° 0.4 mm 5 mps 734 mmHg 84%
    14:00 +7°C° 0.4 mm 4 mps 734 mmHg 85%
    15:00 +7°C° 0.5 mm 4 mps 734 mmHg 87%
    16:00 +7°C° 0.5 mm 4 mps 734 mmHg 88%
    17:00 +7°C° 0.5 mm 4 mps 734 mmHg 90%
    18:00 +7°C° 0.6 mm 4 mps 735 mmHg 90%
    19:00 +7°C° 0.6 mm 4 mps 735 mmHg 91%
    20:00 +7°C° 0.6 mm 4 mps 735 mmHg 91%
    21:00 +6°C° 0.5 mm 4 mps 736 mmHg 91%
    22:00 +6°C° 0.5 mm 4 mps 736 mmHg 90%
    23:00 +6°C° 0.5 mm 4 mps 737 mmHg 90%

    Tomorrow, 24 October, Tuesday

    Time Temperature Precipitation Wind Pressure Humidity
    00:00 +6°C° 0.3 mm 4 mps 737 mmHg 90%
    01:00 +5°C° 0.3 mm 4 mps 738 mmHg 90%
    02:00 +5°C° 0.3 mm 4 mps 738 mmHg 89%
    03:00 +5°C° 0.2 mm 4 mps 738 mmHg 89%
    04:00 +5°C° 0.2 mm 4 mps 739 mmHg 89%
    05:00 +5°C° 0.2 mm 4 mps 739 mmHg 89%
    06:00 +5°C° 0.3 mm 4 mps 740 mmHg 89%
    07:00 +4°C° 0.3 mm 4 mps 740 mmHg 88%
    08:00 +3°C° 0.3 mm 5 mps 741 mmHg 88%
    09:00 +4°C° 0.2 mm 4 mps 742 mmHg 86%
    10:00 +5°C° 0.2 mm 4 mps 742 mmHg 84%
    11:00 +5°C° 0.2 mm 4 mps 743 mmHg 83%
    12:00 +5°C° 0 mm 4 mps 743 mmHg 79%
    13:00 +7°C° 0 mm 3 mps 743 mmHg 76%
    14:00 +8°C° 0 mm 3 mps 744 mmHg 73%
    15:00 +7°C° 0 mm 3 mps 744 mmHg 75%
    16:00 +7°C° 0 mm 2 mps 744 mmHg 77%
    17:00 +6°C° 0 mm 2 mps 744 mmHg 78%
    18:00 +5°C° 0 mm 2 mps 745 mmHg 80%
    19:00 +5°C° 0 mm 2 mps 745 mmHg 82%
    20:00 +4°C° 0 mm 2 mps 746 mmHg 84%
    21:00 +4°C° 0 mm 2 mps 746 mmHg 84%
    22:00 +3°C° 0 mm 2 mps 747 mmHg 84%
    23:00 +3°C° 0 mm 2 mps 747 mmHg 84%

    Day after tomorrow, 25 October, Wednesday

    Time Temperature Precipitation Wind Pressure Humidity
    00:00 +2°C° 0 mm 2 mps 747 mmHg 84%
    01:00 +2°C° 0 mm 2 mps 747 mmHg 84%
    02:00 +2°C° 0 mm 2 mps 748 mmHg 84%
    03:00 +1°C° 0 mm 2 mps 748 mmHg 84%
    04:00 +1°C° 0 mm 2 mps 748 mmHg 84%
    05:00 +1°C° 0 mm 2 mps 748 mmHg 84%
    06:00 +1°C° 0 mm 2 mps 748 mmHg 83%
    07:00 +1°C° 0 mm 2 mps 748 mmHg 82%
    08:00 +1°C° 0 mm 2 mps 748 mmHg 80%
    09:00 +2°C° 0 mm 3 mps 748 mmHg 74%
    10:00 +4°C° 0 mm 3 mps 748 mmHg 67%
    11:00 +5°C° 0 mm 4 mps 748 mmHg 60%
    12:00 +6°C° 0 mm 4 mps 748 mmHg 58%
    13:00 +7°C° 0 mm 4 mps 747 mmHg 55%
    14:00 +8°C° 0 mm 4 mps 747 mmHg 52%
    15:00 +7°C° 0 mm 4 mps 747 mmHg 56%
    16:00 +7°C° 0 mm 3 mps 747 mmHg 59%
    17:00 +5°C° 0 mm 3 mps 746 mmHg 63%
    18:00 +5°C° 0 mm 3 mps 746 mmHg 63%
    19:00 +5°C° 0 mm 3 mps 746 mmHg 63%
    20:00 +5°C° 0 mm 3 mps 746 mmHg 63%
    21:00 +5°C° 0 mm 3 mps 746 mmHg 64%
    22:00 +5°C° 0 mm 3 mps 746 mmHg 65%
    23:00 +5°C° 0 mm 3 mps 746 mmHg 66%

    26 October, Thursday

    Time Temperature Precipitation Wind Pressure Humidity
    00:00 +5°C° 0 mm 3 mps 746 mmHg 67%
    01:00 +7°C° 0 mm 2 mps 746 mmHg 67%
    02:00 +7°C° 0 mm 2 mps 746 mmHg 67%
    03:00 +8°C° 0 mm 3 mps 746 mmHg 67%
    04:00 +8°C° 0 mm 3 mps 745 mmHg 67%
    05:00 +8°C° 0 mm 3 mps 745 mmHg 67%
    06:00 +8°C° 0.1 mm 4 mps 745 mmHg 69%
    07:00 +8°C° 0.1 mm 4 mps 745 mmHg 71%
    08:00 +8°C° 0.1 mm 4 mps 745 mmHg 74%
    09:00 +10°C° 0.1 mm 4 mps 745 mmHg 72%
    10:00 +11°C° 0.1 mm 4 mps 745 mmHg 71%
    11:00 +12°C° 0.1 mm 5 mps 745 mmHg 70%
    12:00 +12°C° 0 mm 5 mps 745 mmHg 69%
    13:00 +13°C° 0 mm 5 mps 745 mmHg 68%
    14:00 +13°C° 0 mm 5 mps 744 mmHg 68%
    15:00 +13°C° 0 mm 4 mps 744 mmHg 69%
    16:00 +12°C° 0 mm 4 mps 744 mmHg 71%
    17:00 +12°C° 0 mm 3 mps 744 mmHg 73%
    18:00 +11°C° 0 mm 3 mps 743 mmHg 74%
    19:00 +11°C° 0 mm 4 mps 743 mmHg 75%
    20:00 +11°C° 0 mm 4 mps 743 mmHg 75%
    21:00 +11°C° 0.2 mm 4 mps 742 mmHg 76%
    22:00 +11°C° 0.2 mm 4 mps 742 mmHg 76%
    23:00 +11°C° 0.2 mm 4 mps 741 mmHg 77%

    27 October, Friday

    Time Temperature Precipitation Wind Pressure Humidity
    00:00 +10°C° 0.2 mm 5 mps 741 mmHg 76%
    01:00 +11°C° 0.2 mm 6 mps 740 mmHg 75%
    02:00 +11°C° 0.2 mm 6 mps 740 mmHg 74%
    03:00 +11°C° 0.1 mm 6 mps 739 mmHg 75%
    04:00 +11°C° 0.1 mm 6 mps 739 mmHg 76%
    05:00 +10°C° 0.1 mm 6 mps 739 mmHg 77%
    06:00 +11°C° 0.1 mm 6 mps 738 mmHg 77%
    07:00 +12°C° 0.1 mm 5 mps 738 mmHg 78%
    08:00 +12°C° 0.1 mm 5 mps 738 mmHg 79%
    09:00 +12°C° 0.1 mm 5 mps 737 mmHg 76%
    10:00 +13°C° 0.1 mm 5 mps 736 mmHg 74%
    11:00 +14°C° 0.1 mm 5 mps 736 mmHg 71%
    12:00 +13°C° 1.1 mm 5 mps 735 mmHg 73%
    13:00 +13°C° 1.1 mm 5 mps 735 mmHg 75%
    14:00 +13°C° 1.1 mm 5 mps 735 mmHg 77%
    15:00 +12°C° 1.1 mm 4 mps 734 mmHg 80%
    16:00 +11°C° 1.1 mm 4 mps 734 mmHg 84%
    17:00 +11°C° 1.1 mm 4 mps 734 mmHg 88%
    18:00 +10°C° 0.8 mm 4 mps 733 mmHg 88%
    19:00 +9°C° 0.8 mm 5 mps 733 mmHg 88%
    20:00 +8°C° 0.8 mm 5 mps 733 mmHg 87%
    21:00 +8°C° 0.5 mm 5 mps 733 mmHg 87%
    22:00 +8°C° 0.5 mm 5 mps 734 mmHg 87%
    23:00 +7°C° 0.5 mm 5 mps 734 mmHg 87%

    28 October, Saturday

    Time Temperature Precipitation Wind Pressure Humidity
    00:00 +7°C° 0.1 mm 5 mps 734 mmHg 88%
    01:00 +7°C° 0.1 mm 5 mps 734 mmHg 89%
    02:00 +7°C° 0.1 mm 5 mps 734 mmHg 90%
    03:00 +7°C° 0.1 mm 5 mps 734 mmHg 89%
    04:00 +7°C° 0.1 mm 5 mps 734 mmHg 89%
    05:00 +7°C° 0.1 mm 5 mps 734 mmHg 88%
    06:00 +7°C° 0.1 mm 5 mps 734 mmHg 88%
    07:00 +7°C° 0.1 mm 5 mps 733 mmHg 87%
    08:00 +7°C° 0.1 mm 5 mps 733 mmHg 87%
    09:00 +7°C° 0.3 mm 5 mps 733 mmHg 84%
    10:00 +8°C° 0.3 mm 6 mps 733 mmHg 81%
    11:00 +8°C° 0.3 mm 6 mps 733 mmHg 79%
    12:00 +8°C° 0.2 mm 6 mps 733 mmHg 75%
    13:00 +8°C° 0.2 mm 6 mps 732 mmHg 71%
    14:00 +8°C° 0.2 mm 6 mps 732 mmHg 67%
    15:00 +8°C° 0 mm 5 mps 731 mmHg 70%
    16:00 +7°C° 0 mm 4 mps 731 mmHg 73%
    17:00 +8°C° 0 mm 3 mps 730 mmHg 76%
    18:00 +7°C° 0.1 mm 3 mps 729 mmHg 78%
    19:00 +6°C° 0.1 mm 4 mps 728 mmHg 79%
    20:00 +6°C° 0.1 mm 4 mps 728 mmHg 80%
    21:00 +6°C° 0.4 mm 4 mps 727 mmHg 80%
    22:00 +6°C° 0.4 mm 5 mps 726 mmHg 80%
    23:00 +6°C° 0.4 mm 5 mps 725 mmHg 80%

    29 October, Sunday

    Time Temperature Precipitation Wind Pressure Humidity
    00:00 +5°C° 0.7 mm 6 mps 725 mmHg 81%
    01:00 +5°C° 0.7 mm 6 mps 724 mmHg 82%
    02:00 +5°C° 0.7 mm 6 mps 724 mmHg 82%
    03:00 +5°C° 0.1 mm 6 mps 724 mmHg 83%
    04:00 +5°C° 0.1 mm 6 mps 723 mmHg 83%
    05:00 +4°C° 0.1 mm 7 mps 723 mmHg 84%
    06:00 +4°C° 0.3 mm 7 mps 724 mmHg 83%
    07:00 +4°C° 0.3 mm 8 mps 724 mmHg 82%
    08:00 +3°C° 0.3 mm 9 mps 724 mmHg 81%
    09:00 +3°C° 0.8 mm 9 mps 725 mmHg 80%
    10:00 +3°C° 0.8 mm 10 mps 725 mmHg 80%
    11:00 +5°C° 0.8 mm 10 mps 725 mmHg 79%
    12:00 +3°C° 1.3 mm 10 mps 726 mmHg 80%
    13:00 +3°C° 1.3 mm 10 mps 726 mmHg 81%
    14:00 +3°C° 1.3 mm 10 mps 727 mmHg 81%
    15:00 +3°C° 0.8 mm 10 mps 727 mmHg 82%
    16:00 +3°C° 0.8 mm 10 mps 728 mmHg 82%
    17:00 +3°C° 0.8 mm 10 mps 729 mmHg 82%
    18:00 +3°C° 0.5 mm 10 mps 730 mmHg 82%
    19:00 +3°C° 0.5 mm 10 mps 731 mmHg 82%
    20:00 +2°C° 0.5 mm 9 mps 731 mmHg 82%
    21:00 +2°C° 0.3 mm 9 mps 732 mmHg 81%
    22:00 +2°C° 0.3 mm 9 mps 733 mmHg 81%
    23:00 +1°C° 0.3 mm 8 mps 733 mmHg 81%
    Show more